Location: Byhalia Creek
(34.8270°N, 89.8040°W)
Time: 07:38:26
(UTC+00:00)

Meteor 1-31 Rocket - Pass Details

Date: 22 April 2026
Orbit: 454 x 472 km, 97.6° (Epoch: 15 May)

Event Time Altitude Azimuth Distance (km) Brightness Sun altitude
Exits shadow 01:09:02 - 118° (ESE) 1,711 4.7 -7.2°
Reaches altitude 10° 01:09:17 10° 115° (ESE) 1,635 4.5 -7.2°
Maximum altitude 01:11:43 18° 71° (ENE) 1,222 4.2 -7.7°
Drops below altitude 10° 01:14:11 10° 26° (NNE) 1,641 5.2 -8.2°
Sets 01:16:42 0° 7° (N) 2,522 6.4 -8.7°
